sat.trackr.live / text

‹ back to catalog

STARLINK-32496

NORAD 62051 · 2024-216V

PAYLOAD ACTIVE UNKNOWN

§ Identity

Operator
Country
US
Launch date
2024-11-21
Launch site
AFETR
Launch vehicle
Mass (kg)
RCS (m²)

Purposes: comms

External: N2YO · Heavens-Above · Gunter

§ Orbital elements

Epoch: 2026-05-25T03:38:54.422592Z

Period
94.27 min
Inclination
42.9987°
Eccentricity
0.0001057
Mean motion
15.27588490 rev/d
Perigee alt
482.3 km
Apogee alt
483.7 km
Semi-major
6,861.2 km
B*
3.9965e-4
RAAN
191.9316°
Arg perigee
277.7207°
Mean anomaly
82.3524°
Rev number
8,548

§ Raw data

STARLINK-324961 62051U 24216V   26145.15201878  .00010754  00000+0  39965-3 0  99902 62051  42.9987 191.9316 0001057 277.7207  82.3524 15.27588490 85488

JSON: /api/v1/satellites/62051 · /tle

For live sub-satellite position, see the globe view (requires WebGL).

§ Visibility from observer

Set your observer location to see the next 7 days of passes ≥ 10°. The values pass through the URL so the page stays shareable.

No JS? Fill the form by hand. The geolocation button needs JavaScript.